Regional Weather Roundup
Issued by NWS

Home | Current Version | Previous Version | Graphics & Text | Print | Product List | Glossary On
Versions: 1 2 3 4 5 6 7 8 9 10 11 12 13 14 15 16 17 18 19 20 21 22 23 24 25 26 27 28 29 30 31 32 33 34 35 36 37 38 39 40 41 42 43 44 45 46 47 48 49 50
000
ASUS45 KCYS 201610
RWRWY

WYOMING REGIONAL WEATHER ROUNDUP
NATIONAL WEATHER SERVICE CHEYENNE WY
900 AM MST THU NOV 20 2014

NOTE:  "FAIR" INDICATES FEW OR NO CLOUDS BELOW 12,000 FEET
WITH NO SIGNIFICANT WEATHER AND/OR OBSTRUCTIONS TO VISIBILITY.

WYZ001-201700-
YELLOWSTONE NATIONAL PARK

CITY           SKY/WX    TMP DP  RH WIND       PRES   REMARKS
LK YELLOWSTONE   N/A     18  14  84 CALM      30.09S
W YELLOWSTONE  NOT AVBL

$$
WYZ002>013-054>058-071-098>099-201700-
NORTHERN WYOMING

CITY           SKY/WX    TMP DP  RH WIND       PRES   REMARKS
JACKSON        PTSUNNY   12  12 100 CALM      30.13
CODY           MOSUNNY   18  12  79 E3        29.92S
GREYBULL       MOSUNNY    4   4 100 CALM      30.02R
WORLAND        MOSUNNY    8   4  83 CALM      29.99S
SHERIDAN       SUNNY     22  17  81 CALM      29.91S
BUFFALO        SUNNY     39  18  42 S6        29.91S WCI  35
GILLETTE       SUNNY     19  13  77 N5        29.93R WCI  12
HULETT         FAIR      25  18  74 SW5       29.93S WCI  19
NEWCASTLE        N/A    N/A N/A N/A MISG        N/A

$$
WYZ014>020-022>026-101>103-201700-
CENTRAL WYOMING

CITY           SKY/WX    TMP DP  RH WIND       PRES   REMARKS
BIG PINEY      MOSUNNY   17  12  80 CALM      30.09R
PINEDALE       MOSUNNY   14  10  85 CALM      30.09R
DUBOIS         FAIR      28  10  47 NW17      30.01S WCI  16
LANDER         MOSUNNY   18  13  80 CALM      29.99R
RIVERTON       SUNNY     20  14  77 VRB3      30.00R
CASPER         SUNNY     35  16  45 SW14      29.97S WCI  26
DOUGLAS        SUNNY     19  15  84 CALM      30.00S

$$
WYZ021-027>030-104>119-201700-
SOUTHERN WYOMING

CITY           SKY/WX    TMP DP  RH WIND       PRES   REMARKS
EVANSTON       MOSUNNY   33  14  45 SW7       30.10R WCI  27
KEMMERER       PTSUNNY   32  10  40 W8        30.09R WCI  25
FORT BRIDGER   FAIR      34  12  40 SW12      30.11R WCI  26
ROCK SPRINGS   PTSUNNY   31  13  47 W8        30.06S WCI  23
DIXON          FAIR      33  17  53 E8        30.12S WCI  25
RAWLINS        SUNNY     37  10  32 VRB6      30.05R WCI  32
SARATOGA       CLOUDY    30  18  59 CALM      30.07R
LARAMIE        MOSUNNY   30  11  45 W12       30.00F WCI  20
CHEYENNE       SUNNY     39  15  37 CALM      30.01R
TORRINGTON     MOSUNNY   21  15  78 W3        30.01S
PINE BLUFFS    FAIR      30  21  69 CALM      30.02S

$$



USA.gov is the U.S. government's official web portal to all federal, state and local government web resources and services.